History for Miami, FL

Friday, January 4, 2013 — View Current Conditions

Jump to Data:

Date:
Airport Code:
Recently Viewed Airport Codes: KMIA
Daily Summary
  Actual Average Record
Temperature
Mean Temperature 75°F 68°F  
Max Temperature 83°F 76°F 87°F (1942)
Min Temperature 66°F 60°F 32°F (1918)
Degree Days
Heating Degree Days 0 2  
Month to date heating degree days 0 8  
Since 1 July heating degree days 16 45  
Cooling Degree Days 10 5  
Month to date cooling degree days 37 20  
Year to date cooling degree days 37 20  
Growing Degree Days 24 (Base 50)    
Moisture
Dew Point 68°F    
Average Humidity 78    
Maximum Humidity 97    
Minimum Humidity 58    
Precipitation
Precipitation 0.01 in 0.06 in 0.65 in (1969)
Month to date precipitation 0.01 0.21  
Year to date precipitation 0.01 0.21  
Snow
Snow 0.00 in in in ()
Month to date snowfall 0.0  
Since 1 July snowfall 0.0  
Snow Depth 0.00 in    
Sea Level Pressure
Sea Level Pressure 30.17 in    
Wind
Wind Speed 3 mph (ENE)    
Max Wind Speed 9 mph    
Max Gust Speed 14 mph    
Visibility 10 miles    
Events Rain    
T = Trace of Precipitation, MM = Missing Value Source: NWS Daily Summary

Show full METARS

(help) - Comma Delimited File

Hourly Observations

Time(EST) Temperature Dew Point Humidity Sea Level Pressure Visibility Wind Direction Wind Speed Gust Speed Precipitation Events Conditions
12:53 AM 71.1°F 66.9°F 87% 30.13 in 10.0 miles Calm Calm - N/A   Clear
1:53 AM 70.0°F 66.9°F 90% 30.13 in 10.0 miles Calm Calm - N/A   Clear
2:53 AM 66.2°F 64.4°F 94% 30.12 in 9.0 miles Calm Calm - N/A   Partly Cloudy
3:53 AM 68.0°F 66.0°F 93% 30.12 in 10.0 miles Calm Calm - N/A   Clear
4:53 AM 69.1°F 68.0°F 96% 30.12 in 10.0 miles Calm Calm - N/A   Clear
5:53 AM 69.1°F 66.9°F 93% 30.14 in 10.0 miles Calm Calm - N/A   Partly Cloudy
6:53 AM 69.1°F 68.0°F 96% 30.15 in 10.0 miles Calm Calm - N/A   Scattered Clouds
7:48 AM 69.8°F 66.2°F 88% 30.18 in 10.0 miles NNW 3.5 mph - N/A   Mostly Cloudy
7:53 AM 70.0°F 66.9°F 90% 30.18 in 10.0 miles Calm Calm - N/A   Mostly Cloudy
8:25 AM 71.6°F 69.8°F 94% 30.19 in 10.0 miles Calm Calm - N/A   Scattered Clouds
8:53 AM 75.0°F 70.0°F 84% 30.20 in 10.0 miles Calm Calm - N/A   Partly Cloudy
9:53 AM 78.1°F 71.1°F 79% 30.21 in 10.0 miles South 3.5 mph - N/A   Scattered Clouds
10:53 AM 79.0°F 68.0°F 69% 30.21 in 10.0 miles Calm Calm - N/A   Mostly Cloudy
11:45 AM 78.8°F 69.8°F 74% 30.19 in 10.0 miles WNW 5.8 mph - N/A   Mostly Cloudy
11:53 AM 79.0°F 69.1°F 72% 30.19 in 10.0 miles WNW 5.8 mph - 0.01 in   Mostly Cloudy
12:37 PM 78.8°F 69.8°F 74% 30.17 in 10.0 miles Calm Calm - N/A   Mostly Cloudy
12:53 PM 79.0°F 68.0°F 69% 30.16 in 10.0 miles Calm Calm - N/A   Mostly Cloudy
1:53 PM 82.0°F 66.9°F 60% 30.14 in 10.0 miles NNE 5.8 mph - N/A   Mostly Cloudy
2:53 PM 80.1°F 66.9°F 64% 30.13 in 10.0 miles ESE 5.8 mph - N/A   Mostly Cloudy
3:53 PM 79.0°F 66.9°F 66% 30.14 in 10.0 miles ESE 6.9 mph - N/A   Mostly Cloudy
4:53 PM 78.1°F 69.1°F 74% 30.15 in 10.0 miles SE 6.9 mph - N/A   Mostly Cloudy
5:53 PM 77.0°F 69.1°F 76% 30.17 in 10.0 miles SE 8.1 mph - N/A   Mostly Cloudy
6:53 PM 75.9°F 69.1°F 79% 30.19 in 10.0 miles East 8.1 mph - N/A   Mostly Cloudy
7:53 PM 75.9°F 69.1°F 79% 30.21 in 10.0 miles East 5.8 mph - N/A   Mostly Cloudy
8:53 PM 75.9°F 70.0°F 82% 30.23 in 10.0 miles Variable 3.5 mph - 0.00 in Rain Light Rain
9:53 PM 75.9°F 70.0°F 82% 30.23 in 10.0 miles ENE 5.8 mph - 0.00 in   Mostly Cloudy
10:53 PM 75.0°F 70.0°F 84% 30.23 in 10.0 miles NNE 3.5 mph - N/A   Mostly Cloudy
11:53 PM 73.9°F 70.0°F 87% 30.22 in 10.0 miles Calm Calm - N/A   Partly Cloudy